Time,TemperatureF,DewpointF,PressureIn,WindDirection,WindDirectionDegrees,WindSpeedMPH,WindSpeedGustMPH,Humidity,HourlyPrecipIn,Conditions,Clouds,dailyrainin,SoftwareType,DateUTC
2013-07-06 00:00:00,60.8,58.0,30.07,South,174,0.0,-999.0,91,-99.99,,,0.00,weatherlink.com 1.10,2013-07-06 04:00:00,
2013-07-06 00:15:00,60.6,58.0,30.07,South,174,0.0,-999.0,92,-99.99,,,0.00,weatherlink.com 1.10,2013-07-06 04:15:00,
2013-07-06 00:30:00,60.2,58.0,30.06,South,174,0.0,-999.0,92,-99.99,,,0.00,weatherlink.com 1.10,2013-07-06 04:30:00,
2013-07-06 00:45:00,60.0,58.0,30.07,South,174,0.0,-999.0,93,-99.99,,,0.00,weatherlink.com 1.10,2013-07-06 04:45:00,
2013-07-06 01:01:00,60.0,58.0,30.08,South,174,1.0,-999.0,93,-99.99,,,0.00,weatherlink.com 1.10,2013-07-06 05:01:00,
2013-07-06 01:16:00,60.0,58.0,30.07,South,174,0.0,-999.0,94,-99.99,,,0.00,weatherlink.com 1.10,2013-07-06 05:16:00,
2013-07-06 01:31:00,59.4,58.0,30.07,South,174,0.0,-999.0,94,-99.99,,,0.00,weatherlink.com 1.10,2013-07-06 05:31:00,
2013-07-06 01:46:00,59.3,58.0,30.07,South,174,0.0,-999.0,94,-99.99,,,0.00,weatherlink.com 1.10,2013-07-06 05:46:00,
2013-07-06 02:01:00,59.0,57.0,30.07,South,174,0.0,-999.0,94,-99.99,,,0.00,weatherlink.com 1.10,2013-07-06 06:01:00,
2013-07-06 02:16:00,58.5,57.0,30.07,South,174,0.0,-999.0,94,-99.99,,,0.00,weatherlink.com 1.10,2013-07-06 06:16:00,
2013-07-06 02:31:00,58.7,57.0,30.07,South,173,0.0,-999.0,95,-99.99,,,0.00,weatherlink.com 1.10,2013-07-06 06:31:00,
2013-07-06 02:46:00,58.2,57.0,30.07,South,173,0.0,-999.0,94,-99.99,,,0.00,weatherlink.com 1.10,2013-07-06 06:46:00,
2013-07-06 03:01:00,58.1,57.0,30.08,South,173,0.0,-999.0,95,-99.99,,,0.00,weatherlink.com 1.10,2013-07-06 07:01:00,
2013-07-06 03:16:00,57.8,56.0,30.08,South,173,0.0,-999.0,95,-99.99,,,0.00,weatherlink.com 1.10,2013-07-06 07:16:00,
2013-07-06 03:31:00,57.7,56.0,30.08,South,174,0.0,-999.0,95,-99.99,,,0.00,weatherlink.com 1.10,2013-07-06 07:31:00,
2013-07-06 03:46:00,57.4,56.0,30.08,South,173,0.0,-999.0,95,-99.99,,,0.00,weatherlink.com 1.10,2013-07-06 07:46:00,
2013-07-06 04:01:00,56.4,55.0,30.08,NW,313,3.0,-999.0,95,-99.99,,,0.00,weatherlink.com 1.10,2013-07-06 08:01:00,
2013-07-06 04:16:00,56.7,56.0,30.08,NW,311,0.0,-999.0,96,-99.99,,,0.00,weatherlink.com 1.10,2013-07-06 08:16:00,
2013-07-06 04:31:00,56.4,55.0,30.07,NW,311,0.0,-999.0,95,-99.99,,,0.00,weatherlink.com 1.10,2013-07-06 08:31:00,
2013-07-06 04:46:00,56.5,55.0,30.08,NW,311,0.0,-999.0,96,-99.99,,,0.00,weatherlink.com 1.10,2013-07-06 08:46:00,
2013-07-06 05:01:00,56.9,56.0,30.07,NNE,20,0.0,-999.0,96,-99.99,,,0.00,weatherlink.com 1.10,2013-07-06 09:01:00,
2013-07-06 05:16:00,57.3,56.0,30.07,NNE,20,0.0,-999.0,96,-99.99,,,0.00,weatherlink.com 1.10,2013-07-06 09:16:00,
2013-07-06 05:31:00,56.6,56.0,30.07,NNE,19,0.0,-999.0,96,-99.99,,,0.00,weatherlink.com 1.10,2013-07-06 09:31:00,
2013-07-06 05:46:00,55.0,54.0,30.08,NNE,20,0.0,-999.0,95,-99.99,,,0.00,weatherlink.com 1.10,2013-07-06 09:46:00,
2013-07-06 06:01:00,54.3,53.0,30.08,NNE,20,0.0,-999.0,96,-99.99,,,0.00,weatherlink.com 1.10,2013-07-06 10:01:00,
2013-07-06 06:16:00,55.0,54.0,30.08,NNE,19,0.0,-999.0,96,-99.99,,,0.00,weatherlink.com 1.10,2013-07-06 10:16:00,
2013-07-06 06:31:00,56.4,56.0,30.08,NNE,19,0.0,-999.0,97,-99.99,,,0.00,weatherlink.com 1.10,2013-07-06 10:31:00,
2013-07-06 06:46:00,57.6,57.0,30.08,NNE,20,0.0,-999.0,97,-99.99,,,0.00,weatherlink.com 1.10,2013-07-06 10:46:00,
2013-07-06 07:01:00,59.0,58.0,30.08,NNE,20,0.0,-999.0,97,-99.99,,,0.00,weatherlink.com 1.10,2013-07-06 11:01:00,
2013-07-06 07:16:00,60.6,60.0,30.08,NNE,20,0.0,-999.0,97,-99.99,,,0.00,weatherlink.com 1.10,2013-07-06 11:16:00,
2013-07-06 07:31:00,62.4,62.0,30.08,NNE,19,0.0,-999.0,97,-99.99,,,0.00,weatherlink.com 1.10,2013-07-06 11:31:00,
2013-07-06 07:46:00,63.8,63.0,30.08,NNE,19,0.0,-999.0,96,-99.99,,,0.00,weatherlink.com 1.10,2013-07-06 11:46:00,
2013-07-06 08:01:00,66.8,65.0,30.08,NNE,20,0.0,-999.0,95,-99.99,,,0.00,weatherlink.com 1.10,2013-07-06 12:01:00,
2013-07-06 08:16:00,69.3,65.0,30.07,NNE,19,0.0,-999.0,87,-99.99,,,0.00,weatherlink.com 1.10,2013-07-06 12:16:00,
2013-07-06 08:31:00,71.3,65.0,30.07,NNE,19,0.0,-999.0,80,-99.99,,,0.00,weatherlink.com 1.10,2013-07-06 12:31:00,
2013-07-06 08:47:00,71.9,65.0,30.07,West,266,3.0,-999.0,80,-99.99,,,0.00,weatherlink.com 1.10,2013-07-06 12:47:00,
2013-07-06 09:02:00,72.3,65.0,30.07,WSW,237,1.0,-999.0,78,-99.99,,,0.00,weatherlink.com 1.10,2013-07-06 13:02:00,
2013-07-06 09:17:00,73.1,65.0,30.07,SW,236,6.0,-999.0,76,-99.99,,,0.00,weatherlink.com 1.10,2013-07-06 13:17:00,
2013-07-06 09:32:00,74.0,66.0,30.07,SSW,196,4.0,-999.0,77,-99.99,,,0.00,weatherlink.com 1.10,2013-07-06 13:32:00,
2013-07-06 09:47:00,74.7,66.0,30.07,WSW,242,4.0,-999.0,74,-99.99,,,0.00,weatherlink.com 1.10,2013-07-06 13:47:00,
2013-07-06 10:02:00,75.5,66.0,30.06,SSW,200,3.0,-999.0,73,-99.99,,,0.00,weatherlink.com 1.10,2013-07-06 14:02:00,
2013-07-06 10:17:00,75.7,66.0,30.06,SSW,205,4.0,-999.0,72,-99.99,,,0.00,weatherlink.com 1.10,2013-07-06 14:17:00,
2013-07-06 10:32:00,76.6,68.0,30.06,South,183,5.0,-999.0,74,-99.99,,,0.00,weatherlink.com 1.10,2013-07-06 14:32:00,
2013-07-06 10:47:00,77.8,69.0,30.06,WSW,250,5.0,-999.0,74,-99.99,,,0.00,weatherlink.com 1.10,2013-07-06 14:47:00,
2013-07-06 11:02:00,77.7,68.0,30.06,SSW,192,5.0,-999.0,71,-99.99,,,0.00,weatherlink.com 1.10,2013-07-06 15:02:00,
2013-07-06 11:17:00,79.3,69.0,30.06,South,188,7.0,-999.0,70,-99.99,,,0.00,weatherlink.com 1.10,2013-07-06 15:17:00,
2013-07-06 11:32:00,79.8,69.0,30.06,SW,232,6.0,-999.0,69,-99.99,,,0.00,weatherlink.com 1.10,2013-07-06 15:32:00,
2013-07-06 11:47:00,80.4,68.0,30.06,SW,228,9.0,-999.0,65,-99.99,,,0.00,weatherlink.com 1.10,2013-07-06 15:47:00,
2013-07-06 12:47:00,81.5,69.0,30.06,South,183,5.0,-999.0,66,-99.99,,,0.00,weatherlink.com 1.10,2013-07-06 16:47:00,
2013-07-06 13:17:00,83.2,69.0,30.06,WSW,243,12.0,-999.0,62,-99.99,,,0.00,weatherlink.com 1.10,2013-07-06 17:17:00,
2013-07-06 14:18:00,84.4,65.0,30.05,WSW,247,11.0,-999.0,53,-99.99,,,0.00,weatherlink.com 1.10,2013-07-06 18:18:00,
2013-07-06 14:33:00,84.5,67.0,30.04,WSW,253,11.0,-999.0,55,-99.99,,,0.00,weatherlink.com 1.10,2013-07-06 18:33:00,
2013-07-06 14:48:00,84.7,66.0,30.04,SW,223,16.0,-999.0,54,-99.99,,,0.00,weatherlink.com 1.10,2013-07-06 18:48:00,
2013-07-06 15:18:00,84.5,67.0,30.04,SW,218,11.0,-999.0,55,-99.99,,,0.00,weatherlink.com 1.10,2013-07-06 19:18:00,
2013-07-06 15:33:00,84.5,67.0,30.04,SSW,202,12.0,-999.0,55,-99.99,,,0.00,weatherlink.com 1.10,2013-07-06 19:33:00,
2013-07-06 16:33:00,84.7,65.0,30.03,WNW,294,8.0,-999.0,52,-99.99,,,0.00,weatherlink.com 1.10,2013-07-06 20:33:00,
2013-07-06 17:03:00,84.5,63.0,30.02,SW,236,12.0,-999.0,49,-99.99,,,0.00,weatherlink.com 1.10,2013-07-06 21:03:00,
2013-07-06 17:18:00,84.7,65.0,30.02,SW,225,10.0,-999.0,52,-99.99,,,0.00,weatherlink.com 1.10,2013-07-06 21:18:00,
2013-07-06 17:33:00,84.6,66.0,30.02,SW,226,10.0,-999.0,53,-99.99,,,0.00,weatherlink.com 1.10,2013-07-06 21:33:00,
2013-07-06 18:03:00,83.9,63.0,30.02,SW,226,9.0,-999.0,50,-99.99,,,0.00,weatherlink.com 1.10,2013-07-06 22:03:00,
2013-07-06 18:33:00,83.3,62.0,30.01,WSW,240,11.0,-999.0,49,-99.99,,,0.00,weatherlink.com 1.10,2013-07-06 22:33:00,
2013-07-06 19:03:00,82.6,63.0,30.01,WSW,254,4.0,-999.0,51,-99.99,,,0.00,weatherlink.com 1.10,2013-07-06 23:03:00,
2013-07-06 19:48:00,82.2,63.0,30.00,WNW,287,0.0,-999.0,53,-99.99,,,0.00,weatherlink.com 1.10,2013-07-06 23:48:00,
2013-07-06 20:03:00,81.8,63.0,30.00,WNW,287,0.0,-999.0,54,-99.99,,,0.00,weatherlink.com 1.10,2013-07-07 00:03:00,
2013-07-06 20:18:00,81.8,64.0,30.00,WNW,287,0.0,-999.0,55,-99.99,,,0.00,weatherlink.com 1.10,2013-07-07 00:18:00,
2013-07-06 20:49:00,78.0,66.0,30.00,WNW,287,0.0,-999.0,67,-99.99,,,0.00,weatherlink.com 1.10,2013-07-07 00:49:00,
2013-07-06 21:03:00,74.7,65.0,30.00,WNW,287,0.0,-999.0,72,-99.99,,,0.00,weatherlink.com 1.10,2013-07-07 01:03:00,
2013-07-06 21:19:00,70.7,64.0,30.00,WNW,287,0.0,-999.0,78,-99.99,,,0.00,weatherlink.com 1.10,2013-07-07 01:19:00,
2013-07-06 21:34:00,67.6,62.0,30.01,WNW,287,0.0,-999.0,83,-99.99,,,0.00,weatherlink.com 1.10,2013-07-07 01:34:00,
2013-07-06 22:04:00,64.9,61.0,30.02,WNW,287,0.0,-999.0,86,-99.99,,,0.00,weatherlink.com 1.10,2013-07-07 02:04:00,
2013-07-06 23:19:00,59.5,57.0,30.04,WNW,287,0.0,-999.0,92,-99.99,,,0.00,weatherlink.com 1.10,2013-07-07 03:19:00,
2013-07-06 23:49:00,60.5,59.0,30.03,WNW,287,0.0,-999.0,94,-99.99,,,0.00,weatherlink.com 1.10,2013-07-07 03:49:00,